Вернуться в каталог

DELTA 1 DEB

АктивенSSO
NORAD 10652·DEBRIS·🇺🇸 United States

Запущен Jul 29, 1976 с Vandenberg Space Force Base

Loading…

Ближайшие Пролёты (ближайшие 24 часа)

TLE

СвежийSource: Space-Track

Эпоха: Sep 14, 2026, 14:46 UTC

1 10652U 76077N   26257.61589429  .00001544  00000-0  18328-1 0  9994
2 10652 102.8550 143.5621 0256275 101.0115 261.9857 11.97940124162741

Отслеживайте DELTA 1 DEB в реальном времени с AllMySat

Download on the App Store